Overview Statistics Trail Chart Weather Telemetry Raw packets
 

This is the latest recevied weather packets stored in our database for station/object KD4EED. If no packets are shown the sender has not sent any weather packets the latest 10 day(s).

<< 40 41 42 43 44 45 46 >>
Time Temp. Humidity Pressure Rain* Wind** Luminosity Snow
1788408426 20.56° C 72% 1011.9 hPa - - 0 W/m² -
1788408122 20.56° C 71% 1011.8 hPa - - 0 W/m² -
1788407817 21.11° C 71% 1011.8 hPa - - 0 W/m² -
1788407514 21.11° C 70% 1011.8 hPa - - 0 W/m² -
1788407213 21.11° C 69% 1011.7 hPa - - 0 W/m² -
1788406908 21.67° C 70% 1011.4 hPa - - 0 W/m² -
1788406604 21.67° C 69% 1011.4 hPa - - 0 W/m² -
1788406303 21.67° C 73% 1011.6 hPa - - 0 W/m² -
1788405998 21.67° C 74% 1011.5 hPa - - 0 W/m² -
1788405694 21.67° C 74% 1011.4 hPa - - 0 W/m² -
1788405389 21.67° C 73% 1011.3 hPa - - 0 W/m² -
1788405084 21.67° C 74% 1011.3 hPa - - 0 W/m² -
1788404780 21.67° C 72% 1011.3 hPa - - 0 W/m² -
1788404475 21.67° C 68% 1011.3 hPa - - 0 W/m² -
1788404170 21.67° C 66% 1011.3 hPa - - 0 W/m² -
1788403867 22.22° C 66% 1011.4 hPa - - 0 W/m² -
1788403566 22.22° C 65% 1011.3 hPa - - 0 W/m² -
1788403260 22.22° C 65% 1011.3 hPa - - 0 W/m² -
1788402956 22.78° C 64% 1011.3 hPa - - 0 W/m² -
1788402651 22.78° C 63% 1011.3 hPa - - 0 W/m² -
1788402351 22.78° C 62% 1011.1 hPa - - 1 W/m² -
1788402050 23.33° C 61% 1011.3 hPa - - 1 W/m² -
1788401744 23.33° C 61% 1011.4 hPa - - 3 W/m² -
1788401439 23.33° C 60% 1011.2 hPa - - 4 W/m² -
1788401135 23.89° C 58% 1011.3 hPa - - 6 W/m² -

* Rain since midnight (hover to see other rain measurements)
** Current wind speed in m/s (hover to see current wind gust speed)